FREGAT R/B, 44553

Orbit data source: Space-Track

FREGAT R/B, 44553 is space debris in HEO originally from a launch on Thu, 26 Sep 2019 UTC launched from the Plesetsk Missile And Space Complex (PKMTR). Debris objects in space refer to the collection of defunct objects orbiting the Earth. Examples of debris include non-operational satellites, rocket bodies, and fragments generated from explosions, collisions, or faulty payload assembly.

Loading next visibility...
Identifier
44553, 2019-065B
Orbit
HEO
Country
Flag of CISCIS
Related business
Manufacturer
Lavochkin
Mission
Spacecraft
Bus & Motor
FREGAT, Unknown motor
Mass
1,000 kg wet, 1,000 kg dry
Launch date (UTC)
2019-09-26 (7 years ago)
Launch vehicle
Unknown
Launch site
Plesetsk Missile And Space Complex (PKMTR)
Object type
Payload
Rocket body
Debris
Shape & HBR
Cyl, 1.7 m
Radar Cross Section
8.354 m², Large (>1 m²)

Expand to show TLE details & history
Last TLE update: 2 days ago

TLE from 2 days ago
0 FREGAT R/B
1 44553U 19065B   26171.25933558  .00000252  00000-0  00000+0 0  9997
2 44553  63.3378 153.0225 6723071 260.8788  23.4096  2.01516358 49565
Epoch: 2026-06-20T06:13Z
TLE epoch observation values (Epoch: 2026-06-20T06:13:26.594Z)
Latitude
0.00004°
Longitude
151.15601°
Altitude
9,883.67 km
Speed
5.829 km/s
True Right ascension
10h 11m 58s
True Declination
0° 00' 00"
Sunlit
Object was in daylight at epoch
Visualization orbit readout
Latitude
Unknown
Longitude
Unknown
Altitude
Unknown
Speed
Unknown
Apparent Right ascension
Unknown
Apparent Declination
Unknown
Sunlit
N/A
Visualization observer readout
Local Sidereal Time
21:23:39
Azimuth
Unknown
Elevation
Unknown
Doppler factor
Unknown
Orbital elements
Apogee altitude
37,897.48 km
Perigee altitude
2,297.785 km
Semi-major axis
26,475.769 km
Eccentricity
0.67231
Inclination
63.3378°
RAAN
153.0225°
Arg. of periapsis
260.8788°
True anomaly
99.17611°
Mean anomaly
23.4096°
Eccentric anomaly
54.94078°
Mean motion
0.50381 °/min
Orbital period
714.55 mins
BSTAR
0
Loading maneuver chart data...
Computing Atmospheric mass density...
Loading historical data...
Loading historical data...
Loading historical data...
Loading historical data...
Loading historical data...
Loading historical data...
Loading historical data...
Other satellites on launch #65 in the year 2019 (2019-09-26 UTC)

Documentation

Showing up to 5 results
|